Regional Weather Roundup
Issued by NWS

Home | Current Version | Previous Version | Graphics & Text | Print | Product List | Glossary Off
Versions: 1 2 3 4 5 6 7 8 9 10 11 12 13 14 15 16 17 18 19 20 21 22 23 24 25 26 27 28 29 30 31 32 33 34 35 36 37 38 39 40 41 42 43 44 45 46 47 48 49 50

000
ASUS43 KMKX 272321
RWRWI

WISCONSIN REGIONAL WEATHER ROUNDUP
NATIONAL WEATHER SERVICE MILWAUKEE/SULLIVAN WI
600 PM CDT WED MAY 27 2015

NOTE: "FAIR" INDICATES FEW OR NO CLOUDS BELOW 12,000 FEET WITH NO
SIGNIFICANT WEATHER AND/OR OBSTRUCTIONS TO VISIBILITY.

WIZ001-002-006>008-014>016-023>028-280000-
NORTHWEST WISCONSIN

CITY           SKY/WX    TMP DP  RH WIND       PRES   REMARKS
SUPERIOR ARPT  MOSUNNY   83  45  25 N9G23     29.89S HX  81
ASHLAND        PTSUNNY   76  56  49 SW7       29.91S
HAYWARD        PTSUNNY   69  55  60 CALM      29.96F
SIREN          MOSUNNY   80  49  32 NW8       29.94R HX  80
CUMBERLAND     SUNNY     77  54  44 W13       29.96R
RICE LAKE      SUNNY     80  53  39 SW8       29.97R HX  80
CHETEK         MOSUNNY   79  57  47 MISG      29.96R HX  80
LADYSMITH      MOSUNNY   75  58  57 SW8       29.97S
EAU CLAIRE     SUNNY     80  56  43 W13       29.96R HX  80
MENOMONIE      SUNNY     80  56  43 SW10      29.96F HX  80
NEW RICHMOND   MOSUNNY   80  52  38 W10       29.97R HX  80
OSCEOLA        MOSUNNY   82  54  39 W10       29.98S HX  81
$$

WIZ003>005-009-010-017-018-280000-
NORTH CENTRAL WISCONSIN

CITY           SKY/WX    TMP DP  RH WIND       PRES   REMARKS
MANITOWISH WTR PTSUNNY   64  53  69 W7        29.96R THUNDER
ARBOR VITAE    TSTM      65  53  65 W13G24    29.99R
WOODRUFF       TSTM      65  53  65 W13G24    29.99R
RHINELANDER    TSTM      71  57  61 W10       29.97R
EAGLE RIVER    MOSUNNY   66  57  71 W6        29.94R
LAND O LAKES   MOSUNNY   74  47  38 W6        29.94R
PHILLIPS       PTSUNNY   73  56  56 CALM      29.96R
TOMAHAWK       MOSUNNY   73  55  52 W10G17    29.97R
MEDFORD        SUNNY     73  58  60 W12       29.99R
MERRILL        SUNNY     75  60  60 W10       29.97R
$$

WIZ029-030-035-036-043>047-280000-
CENTRAL WISCONSIN

CITY           SKY/WX    TMP DP  RH WIND       PRES   REMARKS
WAUSAU         SUNNY     75  58  55 W13       29.96R
MOSINEE        MOSUNNY   73  59  60 W13G21    29.98S
MARSHFIELD     SUNNY     76  57  51 W12       29.98S
STEVENS POINT  SUNNY     74  56  53 W14G20    29.98S
WAUPACA        SUNNY     78  57  48 W9        29.97S
WAUTOMA        MOSUNNY   78  58  50 W12       29.99S
WISC RAPIDS    MOSUNNY   78  55  44 W9        29.99S
CAMP DOUGLAS   SUNNY     77  61  57 W14       29.99S
$$

WIZ011>013-019>022-031-037>040-048>050-280000-
NORTHEAST WISCONSIN

CITY           SKY/WX    TMP DP  RH WIND       PRES   REMARKS
ANTIGO         SUNNY     71  60  67 W16       29.97R
SHAWANO        MOSUNNY   77  59  52 W7        29.95S
OCONTO         MOSUNNY   76  60  57 W8G16     29.94R
STURGEON BAY   PTSUNNY   72  59  64 W12       29.98R
GREEN BAY      SUNNY     76  60  57 W15       29.96R
MANITOWOC      SUNNY     74  59  59 W13       29.97S
APPLETON       MOSUNNY   75  54  46 W13G21    29.97S
CLINTONVILLE   SUNNY     77  55  47 W9G16     29.95S
OSHKOSH        SUNNY     76  56  49 SW6       29.98S
$$

WIZ032>034-041-042-053>061-280000-
SOUTHWEST WISCONSIN

CITY           SKY/WX    TMP DP  RH WIND       PRES   REMARKS
LA CROSSE      SUNNY     82  58  43 W9        29.98S HX  82
SPARTA         SUNNY     78  55  43 W7        30.00F
VIROQUA        SUNNY     76  59  54 SW12      30.03S
BOSCOBEL       SUNNY     79  57  46 W9        30.02S HX  80
PRAIRIE DU CHI SUNNY     78  55  44 SW6       30.01F
PLATTEVILLE    MOSUNNY   77  58  52 SW9       30.04F
$$

WIZ056-057-062-063-064-067-068-280000-
SOUTH CENTRAL WISCONSIN

CITY           SKY/WX    TMP DP  RH WIND       PRES   REMARKS
REEDSBURG      MOSUNNY   75  59  58 SW9G16    30.01S
BARABOO/DELLS  MOSUNNY   75  56  52 W9        30.02S
LONE ROCK      MOSUNNY   78  57  48 W9        30.02S
MINERAL POINT  SUNNY     77  55  47 W9        30.05S
MADISON        MOSUNNY   76  54  46 VRB6      30.02S
MIDDLETON      SUNNY     77  53  44 W10       30.03F
WATERTOWN      SUNNY     74  56  53 W9        30.02S
MONROE         SUNNY     73  55  53 W12       30.05S
JANESVILLE     SUNNY     75  54  46 NW7       30.04R
$$

WIZ051-052-058>065-066-070>072-280000-
SOUTHEAST WISCONSIN

CITY           SKY/WX    TMP DP  RH WIND       PRES   REMARKS
MILWAUKEE      MOSUNNY   67  56  67 E6        30.03R
WAUKESHA       MOSUNNY   72  55  56 W9        30.04R
MILWAUKEE/TIMM SUNNY     73  52  46 NW7G16    30.03R
RACINE         SUNNY     68  55  63 VRB5      30.04S
BURLINGTON     SUNNY     71  53  52 W6        30.04R
KENOSHA        SUNNY     69  58  67 E6        30.04R
FOND DU LAC    SUNNY     75  56  51 W9        29.99S
SHEBOYGAN      SUNNY     73  58  59 W12       29.99S
WEST BEND      SUNNY     72  54  53 SW8G17    30.02R
JUNEAU         SUNNY     73  56  54 SW13      30.03S
$$

LSZ147-162-280000-
LAKE SUPERIOR

STATION/POSITION TIME  TEMP    WIND        PRES    WAVE
                       AIR SEA DIR/SP/G            HT/PER
                 (UTC) (F)     (DEG/KT/KT) (MB)    (FT/S)
W MID LAKE BUOY  2150   46 37  240/  8/ 10   N/A     1/ 4
DEVILS ISLAND    2200   74     190/  2/  3   N/A
PORT WING        2240          300/  8/ 15   N/A
SAXON HARBOR     2240   76     210/  8/ 16   N/A
$$

LMZ867-665-643>646-280000-
LAKE MICHIGAN

STATION/POSITION TIME  TEMP    WIND        PRES    WAVE
                       AIR SEA DIR/SP/G            HT/PER
                 (UTC) (F)     (DEG/KT/KT) (MB)    (FT/S)
CHAMBERS ISLAND  2200   65     160/  6/ 13   N/A
N MID LAKE BUOY  2150   45 37  210/ 10/ 12   N/A     2/ 5
NORTHPORT PIER   2200   63     150/  4/  9   N/A
SISTER BAY       2103   68     230/ 14/ 17   N/A
ALGOMA LAKESHORE 2138          260/  9/ 13   N/A
KEWAUNEE LAKESHO 2100   71     260/  9/ 13   N/A
SHEBOYGAN LAKESH 2200   55     160/  4/  6   N/A
PORT WASHINGTON  2240   64     190/  4/  6   N/A
ATWATER BUOY     2200   55 49  180/  4/  6   N/A
MILWAUKEE LAKESH 2100   60      40/  7/  7   N/A
S MID LAKE BUOY  2150   47 38  280/  8/  8   N/A     1
KENOSHA   LAKESH 2200   58      50/  5/  9   N/A
$$

TC  - TEMPERATURE IN CELSIUS
VSB - VISIBILITY IN STATUTE MILES
WCI - WIND CHILL INDEX
HX  - HEAT INDEX




USA.gov is the U.S. government's official web portal to all federal, state and local government web resources and services.